FENGYUN 1C DEB, 29857

Orbit data source: Space-Track

FENGYUN 1C DEB, 29857 is space debris in SSO originally from a launch on Mon, 10 May 1999 UTC launched from the Taiyaun Space Center, China (TSC). Fengyun 1C debris stems from the Chinese weather satellite Fengyun-1C, which was intentionally destroyed by a Chinese anti-satellite missile in 2007. This event dramatically increased the amount of space debris, with thousands of trackable fragments posing hazards to satellites and human spaceflight. The Fengyun 1C debris cloud has become a focal point in discussions about space sustainability and the need for international regulations to prevent the creation of new debris.

Loading next visibility...
Identifier
29857, 1999-025FB
Orbit
SSO
Country
Flag of CNCN / PRC
Related business
Manufacturer
Unknown
Mission
Spacecraft
Bus & Motor
Unknown
Mass
Unknown
Launch date (UTC)
1999-05-10 (27 years ago)
Launch vehicle
Unknown
Launch site
Taiyaun Space Center, China (TSC)
Object type
Payload
Rocket body
Debris
Shape & HBR
Unknown shape, 0.1 m
Radar Cross Section
Medium (>0.1 m² and <1 m²)

Expand to show TLE details & history
Last TLE update: 3 days ago

TLE from 3 days ago
0 FENGYUN 1C DEB
1 29857U 99025FB  26171.44426661  .00001067  00000-0  88172-3 0  9999
2 29857  98.4248 163.8558 0193295 135.8828 225.7933 13.82543103973963
Epoch: 2026-06-20T10:39Z
TLE epoch observation values (Epoch: 2026-06-20T10:39:44.635Z)
Latitude
0.00006°
Longitude
95.26101°
Altitude
1,057.985 km
Speed
7.273 km/s
True Right ascension
10h 55m 25s
True Declination
0° 00' 00"
Sunlit
Object was in daylight at epoch
Visualization orbit readout
Latitude
Unknown
Longitude
Unknown
Altitude
Unknown
Speed
Unknown
Apparent Right ascension
Unknown
Apparent Declination
Unknown
Sunlit
N/A
Visualization observer readout
Local Sidereal Time
14:12:28
Azimuth
Unknown
Elevation
Unknown
Doppler factor
Unknown
Orbital elements
Apogee altitude
1,093.764 km
Perigee altitude
810.385 km
Semi-major axis
7,330.212 km
Eccentricity
0.01933
Inclination
98.4248°
RAAN
163.8558°
Arg. of periapsis
135.8828°
True anomaly
224.23204°
Mean anomaly
225.7933°
Eccentric anomaly
225.01004°
Mean motion
3.45835 °/min
Orbital period
104.1 mins
BSTAR
0.00088172
Loading maneuver chart data...
Computing Atmospheric mass density...

Documentation

Showing up to 5 results
|